Location: Central Coast
(33.3208°S, 151.2336°E)
Time: 11:42:56
(UTC+11:00)

Tiangong 1 - Pass Details

Date: 15 October 2017
Orbit: 292 x 320 km, 42.8° (Epoch: 21 October)

Event Time Altitude Azimuth Distance (km) Brightness Sun altitude
Exits shadow 05:42:03 - 233° (SW) 1,862 4.2 -7.5°
Reaches altitude 10° 05:44:39 10° 198° (SSW) 1,191 3.5 -6.9°
Maximum altitude 05:45:33 11° 178° (S) 1,131 3.7 -6.7°
Drops below altitude 10° 05:46:27 10° 158° (SSE) 1,195 4.1 -6.6°
Sets 05:49:31 0° 119° (ESE) 2,030 6.6 -5.9°
